Regional Weather Roundup
Issued by NWS

Home | Current Version | Previous Version | Graphics & Text | Print | Product List | Glossary On
Versions: 1 2 3 4 5 6 7 8 9 10 11 12 13 14 15 16 17 18 19 20 21 22 23 24 25 26 27 28 29 30 31 32 33 34 35 36 37 38 39 40 41 42 43 44 45 46 47 48 49 50
000
ASUS43 KIND 240909
RWRIN

WEATHER ROUNDUP FOR INDIANA
NATIONAL WEATHER SERVICE INDIANAPOLIS IN
500 AM EDT THU JUL 24 2014

NOTE: "FAIR" INDICATES FEW OR NO CLOUDS BELOW 12,000 FEET WITH NO
SIGNIFICANT WEATHER AND/OR OBSTRUCTIONS TO VISIBILITY.

* - STATION DOES NOT REPORT WEATHER SUCH AS PRECIPITATION OR FOG.

+ - STATION NOT QUALITY CONTROLLED BY THE NATIONAL WEATHER SERVICE.
    USE DATA WITH CAUTION...ESPECIALLY DEWPOINT AND RELATIVE
    HUMIDITY OBSERVATIONS.

INZ001>003-010>013-019-020-241000-
NORTHWEST INDIANA

CITY           SKY/WX    TMP DP  RH WIND       PRES   REMARKS
GARY /AIRPORT/ CLEAR     64  57  77 NE8       30.12S
KNOX *+        CLEAR     52  50  93 N5        30.09S
LA PORTE +     PTCLDY    56  53  88 N8        30.11S
MICHIGAN CITY+ CLEAR     52  52 100 CALM      30.11S
MONTICELLO +   CLEAR     57  55  95 N7        30.07S
RENSSELAER +   CLEAR     54  54 100 N5        30.09F
VALPARAISO     CLEAR     57  53  86 NE6       30.11S

$$

LMZ046-743>745-241000-
SOUTHERN LAKE MICHIGAN

STATION/POSITION TIME  TEMP WIND        PRES
                       AIR  DIR/SP/G
                 (UTC) (F)  (DEG/KT/KT) (MB)
MICHIGAN CITY    0900   63   30/ 17/ 18   N/A

$$

INZ004-005-014>016-021>024-241000-
NORTH CENTRAL INDIANA

CITY           SKY/WX    TMP DP  RH WIND       PRES   REMARKS
GOSHEN         CLEAR     58  55  90 N7        30.09S
LOGANSPORT +   CLEAR     54  52  94 N5        30.08S
PERU/GRISSOM   CLEAR     56  56 100 N6        30.07S
ROCHESTER +    CLEAR     57  55  94 N3        30.08S
SOUTH BEND     CLEAR     55  51  86 N6        30.11S
WARSAW +       MOCLDY    57  55  94 NE3       30.09S

$$

INZ006>009-017-018-025>027-241000-
NORTHEAST INDIANA

CITY           SKY/WX    TMP DP  RH WIND       PRES   REMARKS
ANGOLA *+      MOCLDY    59  57  94 CALM      30.09S
AUBURN +       CLOUDY    61  55  82 CALM      30.08S
FORT WAYNE     MOCLDY    64  60  87 NE6       30.08R
HUNTINGTON +   CLOUDY    60  58  95 CALM      30.07S

$$

INZ028-029-035-036-043>045-051>053-241000-
WEST CENTRAL INDIANA

CITY           SKY/WX    TMP DP  RH WIND       PRES   REMARKS
GREENCASTLE +  PTCLDY    55  52  88 N8        30.06S
LAFAYETTE      CLEAR     55  53  93 CALM      30.07F
TERRE HAUTE    CLEAR     56  51  84 N5        30.05F

$$

INZ030>032-037>040-046>048-054>057-064-065-241000-
CENTRAL INDIANA

CITY           SKY/WX    TMP DP  RH WIND       PRES   REMARKS
CP ATTERBURY + CLOUDY    61  59  94 N6        30.04R
INDIANAPOLIS   MOCLDY    60  56  86 N9        30.04R
-EAGLE CREEK   CLOUDY    58  54  86 N7        30.05R
KOKOMO *+      PTCLDY    55  54  94 NE3       30.07S
MARION +       MOCLDY    57  56  97 CALM      30.08R
MT COMFORT *+  CLEAR     57 N/A N/A N7        30.06R
SHELBYVILLE    CLOUDY    62  59  90 N6        30.03S
ZIONSVILLE +   PTCLDY    56  53  88 N6        30.08R

$$

INZ033-034-041-042-049-050-058-059-241000-
EAST CENTRAL INDIANA

CITY           SKY/WX    TMP DP  RH WIND       PRES   REMARKS
MUNCIE         CLOUDY    60  58  92 NE6       30.06S FOG

$$

INZ060-061-067>069-081>083-085>088-241000-
SOUTHWEST INDIANA

CITY           SKY/WX    TMP DP  RH WIND       PRES   REMARKS
EVANSVILLE     CLEAR     62  54  74 N9        30.02R
HUNTINGBURG *+ MOCLDY    63  55  77 N10G16    30.01R
WASHINGTON +   MOCLDY    58  56  93 N5        30.02S

$$

INZ062-063-066-070>080-084-089>092-241000-
SOUTH CENTRAL AND SOUTHEAST INDIANA

CITY           SKY/WX    TMP DP  RH WIND       PRES   REMARKS
BLOOMINGTON    MOCLDY    60  56  86 N8        30.04R
SEYMOUR +      CLOUDY    61  50  67 N10       30.01

$$




USA.gov is the U.S. government's official web portal to all federal, state and local government web resources and services.